リード彗星

238P/Read (2022)

English version
Home page
Updated on September 11, 2022

---------------------------------------------------------------------

・ プロフィール

・ 軌道要素

Epoch 2022 Aug. 9.0 TT = JDT 2459800.5
T 2022 June 5.46456 TT                                  Rudenko
q   2.3693660            (2000.0)            P               Q
n   0.17490610     Peri.  324.21566     +0.96191060     -0.27281659
a   3.1666453      Node    51.62550     +0.25565846     +0.87540710
e   0.2517741      Incl.    1.26406     +0.09678194     +0.39904074
P   5.64
From 287 observations 2005 Oct. 23-2022 Sept. 2, mean residual 0".6.
     Nongravitational parameters A1 = +0.18, A2 = -0.0070.

・ 光度変化

        m1 = 8.0 + 5 logΔ + 30 log r

---------------------------------------------------------------------

軌道要素はM.P.E.C. 2022-R68に掲載されたものです。
光度グラフはComet for Windowsで作成したものです。

---------------------------------------------------------------------

Copyright(C) Seiichi Yoshida (comet@aerith.net). All rights reserved.